AAL2415 KBOS-KDCA

Flight info

Callsign AAL2415
Flight time 1h 13m
Altitude 34000
Route SSOXS7 SSOXS Q167 ZIZZI KNUKK ATR LAFLN DEALE3
Aircraft B738/M-SDE2E3FGHIRWXY/LB1

Departure

Time 2026-05-04 22:10
Airport Boston Logan International Airport (KBOS)

Arrival

Time 2026-05-04 23:23
Airport Ronald Reagan Washington National Airport (KDCA)
Time Latitude Longitude Altitude Speed Heading
2026-05-04 21:43 42.35992 -71.01832 30 ft 0 kts 21°
2026-05-04 21:59 42.35979 -71.01839 29 ft 2 kts 21°
2026-05-04 21:59 42.35965 -71.01846 29 ft 2 kts 24°
2026-05-04 21:59 42.35954 -71.01859 29 ft 2 kts 60°
2026-05-04 21:59 42.35949 -71.01878 29 ft 2 kts 88°
2026-05-04 22:00 42.35952 -71.01897 29 ft 1 kts 115°
2026-05-04 22:00 42.35955 -71.01904 29 ft 1 kts 122°
2026-05-04 22:00 42.35956 -71.01907 29 ft 0 kts 121°
2026-05-04 22:02 42.35949 -71.01891 29 ft 3 kts 121°
2026-05-04 22:02 42.35933 -71.01852 29 ft 5 kts 117°
2026-05-04 22:03 42.35916 -71.01794 29 ft 7 kts 103°
2026-05-04 22:03 42.35904 -71.01718 29 ft 8 kts 101°
2026-05-04 22:03 42.35891 -71.01627 29 ft 10 kts 100°
2026-05-04 22:03 42.35911 -71.01538 29 ft 11 kts 31°
2026-05-04 22:04 42.35989 -71.01498 29 ft 12 kts 18°
2026-05-04 22:04 42.36077 -71.01456 29 ft 14 kts 20°
2026-05-04 22:04 42.36178 -71.01407 29 ft 15 kts 19°
2026-05-04 22:04 42.36283 -71.01356 29 ft 16 kts 19°
2026-05-04 22:05 42.36389 -71.01305 29 ft 16 kts 20°
2026-05-04 22:05 42.36496 -71.01253 29 ft 16 kts 19°
2026-05-04 22:05 42.36600 -71.01203 29 ft 16 kts 19°
2026-05-04 22:05 42.36706 -71.01150 29 ft 16 kts 20°
2026-05-04 22:06 42.36802 -71.01162 29 ft 12 kts 323°
2026-05-04 22:06 42.36865 -71.01223 29 ft 10 kts 353°
2026-05-04 22:06 42.36930 -71.01170 29 ft 12 kts 40°
2026-05-04 22:06 42.37008 -71.01093 29 ft 14 kts 26°
2026-05-04 22:07 42.37106 -71.01030 29 ft 17 kts 26°
2026-05-04 22:07 42.37223 -71.00953 29 ft 19 kts 25°
2026-05-04 22:07 42.37353 -71.00877 29 ft 21 kts 20°
2026-05-04 22:07 42.37501 -71.00806 29 ft 23 kts 19°
2026-05-04 22:08 42.37649 -71.00735 29 ft 20 kts 19°
2026-05-04 22:08 42.37772 -71.00675 29 ft 15 kts 19°
2026-05-04 22:08 42.37840 -71.00600 29 ft 12 kts 84°
2026-05-04 22:08 42.37816 -71.00503 29 ft 9 kts 123°
2026-05-04 22:09 42.37759 -71.00485 29 ft 14 kts 198°
2026-05-04 22:09 42.37437 -71.00641 29 ft 82 kts 201°
2026-05-04 22:09 42.36695 -71.00997 30 ft 141 kts 200°
2026-05-04 22:09 42.35696 -71.01459 376 ft 160 kts 198°
2026-05-04 22:10 42.34572 -71.01687 937 ft 176 kts 178°
2026-05-04 22:10 42.33378 -71.01047 1452 ft 203 kts 148°
2026-05-04 22:10 42.32509 -70.99406 2029 ft 226 kts 124°
2026-05-04 22:10 42.31724 -70.97580 2865 ft 221 kts 127°
2026-05-04 22:11 42.31112 -70.95697 3670 ft 224 kts 110°
2026-05-04 22:11 42.30975 -70.93583 4228 ft 239 kts 87°
2026-05-04 22:11 42.31342 -70.91271 4540 ft 264 kts 75°
2026-05-04 22:11 42.31813 -70.88743 4959 ft 286 kts 76°
2026-05-04 22:12 42.32292 -70.86085 5542 ft 301 kts 78°
2026-05-04 22:12 42.32601 -70.83243 6234 ft 311 kts 88°
2026-05-04 22:12 42.32552 -70.80336 7121 ft 310 kts 97°
2026-05-04 22:12 42.32161 -70.77492 7895 ft 313 kts 109°
2026-05-04 22:13 42.31437 -70.74708 8660 ft 315 kts 116°
2026-05-04 22:13 42.30431 -70.72070 9392 ft 314 kts 134°
2026-05-04 22:13 42.28764 -70.70359 10134 ft 302 kts 165°
2026-05-04 22:13 42.26727 -70.69839 10499 ft 306 kts 185°
2026-05-04 22:14 42.24512 -70.69959 10628 ft 329 kts 189°
2026-05-04 22:14 42.22194 -70.70217 11048 ft 341 kts 190°
2026-05-04 22:14 42.19795 -70.70499 11756 ft 346 kts 190°
2026-05-04 22:14 42.17387 -70.70775 12424 ft 351 kts 190°
2026-05-04 22:15 42.14965 -70.71053 13137 ft 355 kts 190°
2026-05-04 22:15 42.12485 -70.71339 13887 ft 358 kts 190°
2026-05-04 22:15 42.10017 -70.71622 14589 ft 363 kts 190°
2026-05-04 22:15 42.07513 -70.71909 15278 ft 367 kts 190°
2026-05-04 22:16 42.04939 -70.72205 15959 ft 371 kts 190°
2026-05-04 22:16 42.02382 -70.72498 16607 ft 375 kts 189°
2026-05-04 22:16 41.99750 -70.72798 17245 ft 379 kts 189°
2026-05-04 22:16 41.97136 -70.73096 17894 ft 382 kts 189°
2026-05-04 22:17 41.94495 -70.73397 18489 ft 386 kts 189°
2026-05-04 22:17 41.91809 -70.73703 19076 ft 390 kts 189°
2026-05-04 22:17 41.89093 -70.74011 19626 ft 395 kts 189°
2026-05-04 22:17 41.86403 -70.74470 20166 ft 394 kts 198°
2026-05-04 22:18 41.83792 -70.75587 20753 ft 391 kts 206°
2026-05-04 22:18 41.81319 -70.77032 21269 ft 393 kts 210°
2026-05-04 22:18 41.78835 -70.78670 21767 ft 396 kts 211°
2026-05-04 22:18 41.76396 -70.80371 22266 ft 399 kts 212°
2026-05-04 22:19 41.73956 -70.82122 22748 ft 402 kts 213°
2026-05-04 22:19 41.71490 -70.83920 23248 ft 405 kts 213°
2026-05-04 22:19 41.69017 -70.85739 23723 ft 408 kts 213°
2026-05-04 22:19 41.66546 -70.87569 24170 ft 411 kts 213°
2026-05-04 22:20 41.64028 -70.89472 24644 ft 412 kts 216°
2026-05-04 22:20 41.61639 -70.91543 25080 ft 413 kts 219°
2026-05-04 22:20 41.59314 -70.93784 25541 ft 414 kts 221°
2026-05-04 22:20 41.57050 -70.96207 25948 ft 415 kts 225°
2026-05-04 22:21 41.54966 -70.98784 26354 ft 415 kts 230°
2026-05-04 22:21 41.52998 -71.01633 26769 ft 415 kts 233°
2026-05-04 22:21 41.51165 -71.04618 27176 ft 416 kts 236°
2026-05-04 22:21 41.49416 -71.07684 27546 ft 418 kts 238°
2026-05-04 22:22 41.47713 -71.10809 27929 ft 420 kts 239°
2026-05-04 22:22 41.46351 -71.13374 28232 ft 421 kts 239°
2026-05-04 22:22 41.44682 -71.16575 28590 ft 423 kts 240°
2026-05-04 22:22 41.43010 -71.19821 28965 ft 425 kts 240°
2026-05-04 22:23 41.41344 -71.23083 29293 ft 427 kts 240°
2026-05-04 22:23 41.39676 -71.26362 29628 ft 429 kts 240°
2026-05-04 22:23 41.38013 -71.29639 30082 ft 428 kts 240°
2026-05-04 22:23 41.36343 -71.32935 30556 ft 427 kts 240°
2026-05-04 22:24 41.34961 -71.35661 30952 ft 425 kts 240°
2026-05-04 22:24 41.33326 -71.38871 31390 ft 423 kts 240°
2026-05-04 22:24 41.31682 -71.42104 31845 ft 421 kts 240°
2026-05-04 22:24 41.30052 -71.45312 32284 ft 419 kts 240°
2026-05-04 22:25 41.28417 -71.48532 32728 ft 417 kts 240°
2026-05-04 22:25 41.26794 -71.51729 33147 ft 415 kts 240°
2026-05-04 22:25 41.25204 -71.54863 33544 ft 414 kts 240°
2026-05-04 22:25 41.23587 -71.58050 33893 ft 413 kts 240°
2026-05-04 22:26 41.21978 -71.61221 33950 ft 417 kts 240°
2026-05-04 22:26 41.18758 -71.67557 33944 ft 417 kts 239°
2026-05-04 22:27 41.15541 -71.73864 33945 ft 415 kts 239°
2026-05-04 22:27 41.12297 -71.80214 33945 ft 415 kts 239°
2026-05-04 22:28 41.09077 -71.86522 33945 ft 415 kts 239°
2026-05-04 22:28 41.05846 -71.92853 33945 ft 415 kts 239°
2026-05-04 22:29 41.03002 -71.99433 33945 ft 412 kts 246°
2026-05-04 22:29 41.00468 -72.06266 33945 ft 417 kts 248°
2026-05-04 22:30 40.97975 -72.13216 33940 ft 417 kts 248°
2026-05-04 22:30 40.95506 -72.20152 33937 ft 415 kts 248°
2026-05-04 22:31 40.92798 -72.26862 33936 ft 418 kts 242°
2026-05-04 22:31 40.89452 -72.33152 33935 ft 420 kts 236°
2026-05-04 22:32 40.85542 -72.38956 33936 ft 424 kts 230°
2026-05-04 22:32 40.81402 -72.44430 33935 ft 425 kts 229°
2026-05-04 22:33 40.76915 -72.49577 33939 ft 428 kts 225°
2026-05-04 22:33 40.72344 -72.54565 33946 ft 427 kts 225°
2026-05-04 22:34 40.67795 -72.59524 33954 ft 427 kts 225°
2026-05-04 22:34 40.63332 -72.64661 33962 ft 427 kts 226°
2026-05-04 22:35 40.58856 -72.69841 33963 ft 427 kts 225°
2026-05-04 22:35 40.54413 -72.74961 33963 ft 427 kts 225°
2026-05-04 22:36 40.49953 -72.80085 33963 ft 428 kts 225°
2026-05-04 22:36 40.45462 -72.85230 33963 ft 428 kts 225°
2026-05-04 22:37 40.40989 -72.90346 33962 ft 428 kts 225°
2026-05-04 22:37 40.36510 -72.95459 33963 ft 429 kts 225°
2026-05-04 22:38 40.32003 -73.00591 33958 ft 429 kts 225°
2026-05-04 22:38 40.27527 -73.05679 33951 ft 429 kts 225°
2026-05-04 22:39 40.23011 -73.10795 33945 ft 430 kts 225°
2026-05-04 22:39 40.18486 -73.15879 33940 ft 431 kts 225°
2026-05-04 22:40 40.13924 -73.21010 33936 ft 431 kts 225°
2026-05-04 22:40 40.09404 -73.26096 33936 ft 432 kts 225°
2026-05-04 22:41 40.04842 -73.31207 33936 ft 432 kts 225°
2026-05-04 22:41 40.00291 -73.36298 33936 ft 433 kts 225°
2026-05-04 22:42 39.95770 -73.41354 33934 ft 429 kts 225°
2026-05-04 22:42 39.91258 -73.46395 33936 ft 430 kts 225°
2026-05-04 22:43 39.86713 -73.51466 33936 ft 431 kts 225°
2026-05-04 22:43 39.82146 -73.56551 33936 ft 433 kts 225°
2026-05-04 22:44 39.77584 -73.61617 33935 ft 432 kts 225°
2026-05-04 22:44 39.73042 -73.66662 33936 ft 433 kts 224°
2026-05-04 22:45 39.68464 -73.71739 33936 ft 433 kts 224°
2026-05-04 22:45 39.61609 -73.79333 33935 ft 433 kts 224°
2026-05-04 22:46 39.57045 -73.84381 33936 ft 433 kts 224°
2026-05-04 22:46 39.52894 -73.88964 33935 ft 432 kts 224°
2026-05-04 22:47 39.48299 -73.94029 33935 ft 432 kts 224°
2026-05-04 22:47 39.43763 -73.99022 33931 ft 431 kts 224°
2026-05-04 22:48 39.39645 -74.03541 33929 ft 434 kts 224°
2026-05-04 22:48 39.35041 -74.08546 33924 ft 436 kts 224°
2026-05-04 22:49 39.30407 -74.13588 33920 ft 435 kts 224°
2026-05-04 22:49 39.25821 -74.18579 33917 ft 434 kts 225°
2026-05-04 22:50 39.21217 -74.23589 33917 ft 434 kts 225°
2026-05-04 22:50 39.16626 -74.28579 33917 ft 434 kts 225°
2026-05-04 22:51 39.12015 -74.33584 33917 ft 434 kts 225°
2026-05-04 22:51 39.07430 -74.38553 33917 ft 433 kts 225°
2026-05-04 22:52 39.02810 -74.43552 33918 ft 433 kts 225°
2026-05-04 22:52 38.98395 -74.48683 33928 ft 427 kts 233°
2026-05-04 22:53 38.95142 -74.54927 33942 ft 420 kts 247°
2026-05-04 22:53 38.92945 -74.61831 33948 ft 417 kts 254°
2026-05-04 22:54 38.91229 -74.68936 33952 ft 417 kts 256°
2026-05-04 22:54 38.89689 -74.76102 33956 ft 416 kts 258°
2026-05-04 22:55 38.88967 -74.79662 33855 ft 413 kts 258°
2026-05-04 22:55 38.88262 -74.83244 33226 ft 411 kts 259°
2026-05-04 22:55 38.87575 -74.86797 32372 ft 413 kts 259°
2026-05-04 22:55 38.86898 -74.90323 31622 ft 413 kts 259°
2026-05-04 22:56 38.86216 -74.93890 30867 ft 413 kts 259°
2026-05-04 22:56 38.85536 -74.97452 30094 ft 413 kts 260°
2026-05-04 22:56 38.84853 -75.01035 29317 ft 412 kts 260°
2026-05-04 22:56 38.84184 -75.04547 28756 ft 407 kts 260°
2026-05-04 22:57 38.83519 -75.08031 28243 ft 400 kts 260°
2026-05-04 22:57 38.82866 -75.11451 27683 ft 396 kts 260°
2026-05-04 22:57 38.82335 -75.14239 27229 ft 402 kts 259°
2026-05-04 22:57 38.81688 -75.17790 26629 ft 406 kts 262°
2026-05-04 22:58 38.81252 -75.21332 26031 ft 402 kts 266°
2026-05-04 22:58 38.80952 -75.24599 25487 ft 396 kts 267°
2026-05-04 22:58 38.80705 -75.27703 24969 ft 392 kts 268°
2026-05-04 22:58 38.80455 -75.31110 24398 ft 388 kts 268°
2026-05-04 22:59 38.80217 -75.34551 23821 ft 385 kts 268°
2026-05-04 22:59 38.79990 -75.37926 23248 ft 381 kts 268°
2026-05-04 22:59 38.79768 -75.41317 22670 ft 378 kts 268°
2026-05-04 22:59 38.79554 -75.44624 22103 ft 375 kts 268°
2026-05-04 23:00 38.79340 -75.47949 21529 ft 371 kts 268°
2026-05-04 23:00 38.79133 -75.51176 20970 ft 367 kts 268°
2026-05-04 23:00 38.78922 -75.54420 20401 ft 363 kts 268°
2026-05-04 23:00 38.78711 -75.57626 19840 ft 360 kts 268°
2026-05-04 23:01 38.78502 -75.60803 19280 ft 357 kts 268°
2026-05-04 23:01 38.78297 -75.63954 18720 ft 355 kts 268°
2026-05-04 23:01 38.78091 -75.67088 18161 ft 352 kts 267°
2026-05-04 23:01 38.77885 -75.70217 17599 ft 349 kts 267°
2026-05-04 23:02 38.77683 -75.73274 17121 ft 344 kts 267°
2026-05-04 23:02 38.77485 -75.76298 16603 ft 343 kts 267°
2026-05-04 23:02 38.77286 -75.79325 16050 ft 342 kts 267°
2026-05-04 23:02 38.77087 -75.82352 15505 ft 339 kts 267°
2026-05-04 23:03 38.76888 -75.85364 14963 ft 335 kts 267°
2026-05-04 23:03 38.76693 -75.88306 14424 ft 332 kts 267°
2026-05-04 23:03 38.76498 -75.91238 13885 ft 329 kts 267°
2026-05-04 23:03 38.76305 -75.94109 13348 ft 327 kts 267°
2026-05-04 23:04 38.76110 -75.97029 12806 ft 325 kts 267°
2026-05-04 23:04 38.75917 -75.99895 12265 ft 322 kts 267°
2026-05-04 23:04 38.75724 -76.02738 11735 ft 320 kts 266°
2026-05-04 23:04 38.75549 -76.05531 11210 ft 318 kts 269°
2026-05-04 23:05 38.75613 -76.08349 11000 ft 311 kts 275°
2026-05-04 23:05 38.75841 -76.11109 11009 ft 316 kts 277°
2026-05-04 23:05 38.76114 -76.13921 10992 ft 318 kts 277°
2026-05-04 23:05 38.76389 -76.16732 10997 ft 317 kts 277°
2026-05-04 23:06 38.76658 -76.19512 11000 ft 316 kts 277°
2026-05-04 23:06 38.76924 -76.22327 11001 ft 316 kts 277°
2026-05-04 23:06 38.77184 -76.25113 11005 ft 317 kts 277°
2026-05-04 23:06 38.77450 -76.27927 10994 ft 318 kts 277°
2026-05-04 23:07 38.77717 -76.30737 11006 ft 318 kts 277°
2026-05-04 23:07 38.77980 -76.33553 10998 ft 318 kts 277°
2026-05-04 23:07 38.78234 -76.36314 10991 ft 308 kts 277°
2026-05-04 23:07 38.78473 -76.38963 10994 ft 290 kts 277°
2026-05-04 23:08 38.78700 -76.41474 10995 ft 275 kts 277°
2026-05-04 23:08 38.78915 -76.43852 11003 ft 269 kts 277°
2026-05-04 23:08 38.79142 -76.46272 10884 ft 274 kts 277°
2026-05-04 23:08 38.79369 -76.48685 10497 ft 275 kts 277°
2026-05-04 23:09 38.79592 -76.51122 10083 ft 275 kts 276°
2026-05-04 23:09 38.79795 -76.53509 9982 ft 267 kts 274°
2026-05-04 23:09 38.79905 -76.55854 9724 ft 259 kts 272°
2026-05-04 23:09 38.79967 -76.58160 9469 ft 256 kts 271°
2026-05-04 23:10 38.80026 -76.60437 9249 ft 259 kts 271°
2026-05-04 23:10 38.80104 -76.62768 8997 ft 259 kts 271°
2026-05-04 23:10 38.80176 -76.65022 8745 ft 255 kts 270°
2026-05-04 23:10 38.80253 -76.67329 8481 ft 254 kts 270°
2026-05-04 23:11 38.80325 -76.69593 8247 ft 254 kts 270°
2026-05-04 23:11 38.80403 -76.71852 7991 ft 255 kts 271°
2026-05-04 23:11 38.80485 -76.74131 7749 ft 254 kts 271°
2026-05-04 23:11 38.80718 -76.76367 7493 ft 255 kts 281°
2026-05-04 23:12 38.81258 -76.78529 7237 ft 255 kts 291°
2026-05-04 23:12 38.82098 -76.80521 6988 ft 257 kts 300°
2026-05-04 23:12 38.83169 -76.82367 6748 ft 258 kts 305°
2026-05-04 23:12 38.84296 -76.84152 6496 ft 258 kts 306°
2026-05-04 23:13 38.85439 -76.85955 6244 ft 257 kts 305°
2026-05-04 23:13 38.86554 -76.87729 5992 ft 257 kts 305°
2026-05-04 23:13 38.87680 -76.89510 5743 ft 256 kts 307°
2026-05-04 23:13 38.88903 -76.91163 5492 ft 257 kts 311°
2026-05-04 23:14 38.90178 -76.92776 5240 ft 257 kts 312°
2026-05-04 23:14 38.91419 -76.94340 4976 ft 247 kts 311°
2026-05-04 23:14 38.92625 -76.95875 4719 ft 237 kts 311°
2026-05-04 23:14 38.93769 -76.97342 4471 ft 233 kts 311°
2026-05-04 23:15 38.94926 -76.98811 4227 ft 232 kts 311°
2026-05-04 23:15 38.96051 -77.00261 3989 ft 232 kts 311°
2026-05-04 23:15 38.97173 -77.01700 3770 ft 222 kts 311°
2026-05-04 23:15 38.98267 -77.03104 3510 ft 220 kts 311°
2026-05-04 23:16 38.99340 -77.04480 3263 ft 220 kts 311°
2026-05-04 23:16 39.00425 -77.05856 3027 ft 214 kts 311°
2026-05-04 23:16 39.01441 -77.07159 2994 ft 196 kts 310°
2026-05-04 23:16 39.02377 -77.08365 2989 ft 188 kts 311°
2026-05-04 23:17 39.03297 -77.09547 3014 ft 187 kts 310°
2026-05-04 23:17 39.04220 -77.10755 2999 ft 186 kts 304°
2026-05-04 23:17 39.04659 -77.12225 2988 ft 177 kts 266°
2026-05-04 23:17 39.04306 -77.13730 3027 ft 177 kts 240°
2026-05-04 23:18 39.03466 -77.14861 2980 ft 179 kts 210°
2026-05-04 23:18 39.02244 -77.15201 3027 ft 180 kts 181°
2026-05-04 23:18 39.01037 -77.14918 2985 ft 177 kts 170°
2026-05-04 23:18 38.99852 -77.14606 3010 ft 172 kts 175°
2026-05-04 23:19 38.98648 -77.14412 2982 ft 175 kts 179°
2026-05-04 23:19 38.97433 -77.14243 3017 ft 174 kts 178°
2026-05-04 23:19 38.96216 -77.14069 2843 ft 181 kts 172°
2026-05-04 23:19 38.95042 -77.13448 2423 ft 184 kts 153°
2026-05-04 23:20 38.94007 -77.12552 2031 ft 178 kts 150°
2026-05-04 23:20 38.92977 -77.11741 1680 ft 168 kts 154°
2026-05-04 23:20 38.92003 -77.11059 1706 ft 155 kts 155°
2026-05-04 23:20 38.91135 -77.10272 1611 ft 155 kts 138°
2026-05-04 23:21 38.90579 -77.09122 1267 ft 146 kts 114°
2026-05-04 23:21 38.90379 -77.07856 1124 ft 147 kts 105°
2026-05-04 23:21 38.89928 -77.06721 949 ft 144 kts 137°
2026-05-04 23:21 38.89180 -77.05895 736 ft 141 kts 145°
2026-05-04 23:22 38.88435 -77.05087 578 ft 137 kts 144°
2026-05-04 23:22 38.87678 -77.04326 339 ft 140 kts 149°
2026-05-04 23:22 38.86795 -77.03941 182 ft 134 kts 177°
2026-05-04 23:22 38.85882 -77.03848 30 ft 126 kts 176°
2026-05-04 23:23 38.85272 -77.03788 24 ft 44 kts 175°
2026-05-04 23:23 38.85050 -77.03766 24 ft 25 kts 175°
2026-05-04 23:23 38.84925 -77.03767 24 ft 14 kts 200°
2026-05-04 23:23 38.84881 -77.03835 24 ft 8 kts 260°
2026-05-04 23:24 38.84875 -77.03902 24 ft 6 kts 269°
2026-05-04 23:24 38.84891 -77.03944 24 ft 5 kts 326°
2026-05-04 23:24 38.84927 -77.03953 24 ft 6 kts 356°
2026-05-04 23:24 38.84976 -77.03957 24 ft 7 kts 356°
2026-05-04 23:25 38.85035 -77.03964 24 ft 9 kts 355°
2026-05-04 23:25 38.85107 -77.03971 24 ft 11 kts 356°
2026-05-04 23:25 38.85186 -77.03979 24 ft 11 kts 355°
2026-05-04 23:25 38.85265 -77.03987 24 ft 11 kts 355°
2026-05-04 23:26 38.85343 -77.03995 24 ft 11 kts 355°
2026-05-04 23:26 38.85416 -77.04002 24 ft 9 kts 355°
2026-05-04 23:26 38.85482 -77.04009 24 ft 9 kts 354°
2026-05-04 23:26 38.85534 -77.04041 24 ft 7 kts 302°
2026-05-04 23:27 38.85534 -77.04102 24 ft 6 kts 253°
2026-05-04 23:27 38.85513 -77.04140 24 ft 4 kts 204°
2026-05-04 23:27 38.85487 -77.04144 24 ft 3 kts 184°
2026-05-04 23:27 38.85478 -77.04145 24 ft 0 kts 184°